Location: Moscow
(55.7500°N, 37.5830°E)
Time: 16:18:37
(UTC+03:00)

Transit 2A - Pass Details

Date: 03 December 2021
Orbit: 591 x 967 km, 66.7° (Epoch: 17 January)

Event Time Altitude Azimuth Distance (km) Brightness Sun altitude
Rises 10:55:55 0° 312° (NW) 3,664 9.0 10.1°
Reaches altitude 10° 10:59:32 10° 292° (WNW) 2,713 8.5 10.3°
Maximum altitude 11:03:10 16° 257° (WSW) 2,280 8.5 10.4°
Drops below altitude 10° 11:06:45 10° 222° (SW) 2,654 9.3 10.6°
Sets 11:10:15 0° 202° (SSW) 3,543 10.3 10.7°
